Time,TemperatureF,DewpointF,PressureIn,WindDirection,WindDirectionDegrees,WindSpeedMPH,WindSpeedGustMPH,Humidity,HourlyPrecipIn,Conditions,Clouds,dailyrainin,SoftwareType,DateUTC
2013-06-24 00:10:00,70.0,69.0,29.96,NE,42,0.0,0.0,97,0.00,,,0.00,weatherlink.com 1.10,2013-06-24 04:10:00,
2013-06-24 00:25:00,69.8,69.0,29.96,NE,42,0.0,0.0,97,0.00,,,0.00,weatherlink.com 1.10,2013-06-24 04:25:00,
2013-06-24 00:40:00,69.6,69.0,29.96,NE,42,0.0,0.0,97,0.00,,,0.00,weatherlink.com 1.10,2013-06-24 04:40:00,
2013-06-24 00:55:00,69.5,69.0,29.95,NE,42,0.0,0.0,97,0.00,,,0.00,weatherlink.com 1.10,2013-06-24 04:55:00,
2013-06-24 01:10:00,69.1,68.0,29.96,NE,42,0.0,0.0,97,0.00,,,0.00,weatherlink.com 1.10,2013-06-24 05:10:00,
2013-06-24 01:25:00,69.0,68.0,29.95,NE,42,0.0,0.0,97,0.00,,,0.00,weatherlink.com 1.10,2013-06-24 05:25:00,
2013-06-24 01:40:00,68.7,68.0,29.95,NE,42,0.0,0.0,97,0.00,,,0.00,weatherlink.com 1.10,2013-06-24 05:40:00,
2013-06-24 01:55:00,68.6,68.0,29.95,NE,42,0.0,0.0,97,0.00,,,0.00,weatherlink.com 1.10,2013-06-24 05:55:00,
2013-06-24 02:10:00,68.6,68.0,29.95,NE,42,0.0,0.0,98,0.00,,,0.00,weatherlink.com 1.10,2013-06-24 06:10:00,
2013-06-24 02:25:00,68.2,67.0,29.95,NE,42,0.0,0.0,97,0.00,,,0.00,weatherlink.com 1.10,2013-06-24 06:25:00,
2013-06-24 02:40:00,68.2,68.0,29.94,NE,42,0.0,0.0,98,0.00,,,0.00,weatherlink.com 1.10,2013-06-24 06:40:00,
2013-06-24 02:55:00,68.3,68.0,29.94,NE,42,0.0,0.0,98,0.00,,,0.00,weatherlink.com 1.10,2013-06-24 06:55:00,
2013-06-24 03:10:00,67.5,67.0,29.94,NE,42,0.0,0.0,97,0.00,,,0.00,weatherlink.com 1.10,2013-06-24 07:10:00,
2013-06-24 03:40:00,67.4,67.0,29.94,NE,42,0.0,0.0,98,0.00,,,0.00,weatherlink.com 1.10,2013-06-24 07:40:00,
2013-06-24 03:55:00,67.6,67.0,29.94,NE,42,0.0,0.0,98,0.00,,,0.00,weatherlink.com 1.10,2013-06-24 07:55:00,
2013-06-24 04:10:00,67.0,66.0,29.94,NE,42,0.0,0.0,97,0.00,,,0.00,weatherlink.com 1.10,2013-06-24 08:10:00,
2013-06-24 04:25:00,67.2,67.0,29.93,NE,42,0.0,0.0,98,0.00,,,0.00,weatherlink.com 1.10,2013-06-24 08:25:00,
2013-06-24 04:40:00,66.4,66.0,29.93,NE,42,0.0,0.0,98,0.00,,,0.00,weatherlink.com 1.10,2013-06-24 08:40:00,
2013-06-24 04:55:00,66.2,66.0,29.93,NE,42,0.0,0.0,98,0.00,,,0.00,weatherlink.com 1.10,2013-06-24 08:55:00,
2013-06-24 05:10:00,66.3,66.0,29.93,NE,42,0.0,0.0,98,0.00,,,0.00,weatherlink.com 1.10,2013-06-24 09:10:00,
2013-06-24 05:40:00,66.0,66.0,29.92,NE,42,0.0,0.0,98,0.00,,,0.00,weatherlink.com 1.10,2013-06-24 09:40:00,
2013-06-24 05:55:00,66.2,66.0,29.92,NE,42,0.0,0.0,98,0.00,,,0.00,weatherlink.com 1.10,2013-06-24 09:55:00,
2013-06-24 06:10:00,66.6,66.0,29.92,NE,42,0.0,0.0,98,0.00,,,0.00,weatherlink.com 1.10,2013-06-24 10:10:00,
2013-06-24 07:10:00,70.0,69.0,29.93,NE,42,0.0,0.0,97,0.00,,,0.00,weatherlink.com 1.10,2013-06-24 11:10:00,
2013-06-24 07:41:00,73.4,72.0,29.93,NE,42,0.0,0.0,95,0.00,,,0.00,weatherlink.com 1.10,2013-06-24 11:41:00,
2013-06-24 07:56:00,76.8,73.0,29.93,NE,42,0.0,0.0,88,0.00,,,0.00,weatherlink.com 1.10,2013-06-24 11:56:00,
2013-06-24 08:26:00,80.5,75.0,29.91,SW,233,0.0,0.0,83,0.00,,,0.00,weatherlink.com 1.10,2013-06-24 12:26:00,
2013-06-24 08:41:00,81.2,75.0,29.92,WSW,255,3.0,6.0,80,0.00,,,0.00,weatherlink.com 1.10,2013-06-24 12:41:00,
2013-06-24 08:56:00,82.7,74.0,29.92,ESE,110,3.0,7.0,76,0.00,,,0.00,weatherlink.com 1.10,2013-06-24 12:56:00,
2013-06-24 09:11:00,83.0,74.0,29.92,WSW,253,4.0,9.0,74,0.00,,,0.00,weatherlink.com 1.10,2013-06-24 13:11:00,
2013-06-24 09:56:00,85.4,73.0,29.91,WSW,244,2.0,8.0,67,0.00,,,0.00,weatherlink.com 1.10,2013-06-24 13:56:00,
2013-06-24 10:11:00,85.7,74.0,29.91,NW,317,4.0,10.0,67,0.00,,,0.00,weatherlink.com 1.10,2013-06-24 14:11:00,
2013-06-24 10:26:00,85.2,73.0,29.91,NNW,329,4.0,10.0,67,0.00,,,0.00,weatherlink.com 1.10,2013-06-24 14:26:00,
2013-06-24 10:41:00,85.9,73.0,29.91,NNE,33,4.0,14.0,65,0.00,,,0.00,weatherlink.com 1.10,2013-06-24 14:41:00,
2013-06-24 10:56:00,86.6,72.0,29.91,NE,41,11.0,14.0,61,0.00,,,0.00,weatherlink.com 1.10,2013-06-24 14:56:00,
2013-06-24 11:11:00,87.1,71.0,29.91,North,4,3.0,16.0,59,0.00,,,0.00,weatherlink.com 1.10,2013-06-24 15:11:00,
2013-06-24 11:26:00,86.9,71.0,29.91,NNW,343,11.0,16.0,59,0.00,,,0.00,weatherlink.com 1.10,2013-06-24 15:26:00,
2013-06-24 11:56:00,88.0,70.0,29.90,NE,45,7.0,19.0,56,0.00,,,0.00,weatherlink.com 1.10,2013-06-24 15:56:00,
2013-06-24 12:26:00,89.4,71.0,29.90,SE,143,4.0,15.0,55,0.00,,,0.00,weatherlink.com 1.10,2013-06-24 16:26:00,
2013-06-24 12:41:00,90.0,71.0,29.90,NNE,13,9.0,12.0,53,0.00,,,0.00,weatherlink.com 1.10,2013-06-24 16:41:00,
2013-06-24 13:12:00,90.6,70.0,29.89,NNE,29,11.0,15.0,51,0.00,,,0.00,weatherlink.com 1.10,2013-06-24 17:12:00,
2013-06-24 13:26:00,91.4,71.0,29.89,NE,44,7.0,14.0,51,0.00,,,0.00,weatherlink.com 1.10,2013-06-24 17:26:00,
2013-06-24 13:56:00,91.8,69.0,29.89,WSW,252,3.0,13.0,48,0.00,,,0.00,weatherlink.com 1.10,2013-06-24 17:56:00,
2013-06-24 14:12:00,91.4,70.0,29.88,NNE,26,6.0,13.0,49,0.00,,,0.00,weatherlink.com 1.10,2013-06-24 18:12:00,
2013-06-24 14:27:00,91.6,70.0,29.88,NE,45,2.0,9.0,49,0.00,,,0.00,weatherlink.com 1.10,2013-06-24 18:27:00,
2013-06-24 14:42:00,92.9,70.0,29.87,NNW,329,3.0,9.0,47,0.00,,,0.00,weatherlink.com 1.10,2013-06-24 18:42:00,
2013-06-24 15:12:00,93.0,69.0,29.86,NE,37,6.0,8.0,46,0.00,,,0.00,weatherlink.com 1.10,2013-06-24 19:12:00,
2013-06-24 15:42:00,94.7,71.0,29.85,WSW,256,1.0,9.0,46,0.00,,,0.00,weatherlink.com 1.10,2013-06-24 19:42:00,
2013-06-24 15:57:00,94.2,72.0,29.84,WSW,241,5.0,8.0,49,0.00,,,0.00,weatherlink.com 1.10,2013-06-24 19:57:00,
2013-06-24 16:12:00,94.3,72.0,29.84,NNW,334,3.0,7.0,49,0.00,,,0.00,weatherlink.com 1.10,2013-06-24 20:12:00,
2013-06-24 16:27:00,94.0,73.0,29.84,WSW,243,2.0,10.0,51,0.00,,,0.00,weatherlink.com 1.10,2013-06-24 20:27:00,
2013-06-24 16:42:00,94.2,72.0,29.83,West,267,2.0,9.0,48,0.00,,,0.00,weatherlink.com 1.10,2013-06-24 20:42:00,
2013-06-24 17:12:00,88.9,72.0,29.85,WSW,247,17.0,22.0,57,0.00,,,0.00,weatherlink.com 1.10,2013-06-24 21:12:00,
2013-06-24 17:27:00,77.3,71.0,29.89,NE,56,10.0,24.0,81,0.00,,,0.00,weatherlink.com 1.10,2013-06-24 21:27:00,
2013-06-24 17:42:00,73.1,70.0,29.88,NE,41,11.0,17.0,90,0.00,,,0.00,weatherlink.com 1.10,2013-06-24 21:42:00,
2013-06-24 17:57:00,73.8,70.0,29.87,NNE,16,2.0,8.0,88,0.00,,,0.00,weatherlink.com 1.10,2013-06-24 21:57:00,
2013-06-24 18:12:00,73.5,70.0,29.87,NE,46,1.0,6.0,89,0.00,,,0.00,weatherlink.com 1.10,2013-06-24 22:12:00,
2013-06-24 18:42:00,75.2,72.0,29.88,NE,45,0.0,2.0,88,0.00,,,0.00,weatherlink.com 1.10,2013-06-24 22:42:00,
2013-06-24 19:27:00,75.2,72.0,29.86,SW,230,1.0,3.0,88,0.00,,,0.00,weatherlink.com 1.10,2013-06-24 23:27:00,
2013-06-24 19:57:00,74.9,72.0,29.86,SW,230,1.0,4.0,89,0.00,,,0.00,weatherlink.com 1.10,2013-06-24 23:57:00,
2013-06-24 20:12:00,75.0,72.0,29.86,SW,230,0.0,3.0,89,0.00,,,0.00,weatherlink.com 1.10,2013-06-25 00:12:00,
2013-06-24 20:27:00,74.1,72.0,29.88,SW,230,1.0,2.0,92,0.00,,,0.00,weatherlink.com 1.10,2013-06-25 00:27:00,
2013-06-24 20:42:00,73.7,72.0,29.89,SW,230,0.0,2.0,93,0.00,,,0.00,weatherlink.com 1.10,2013-06-25 00:42:00,
2013-06-24 20:57:00,73.4,72.0,29.89,SW,230,0.0,1.0,94,0.00,,,0.00,weatherlink.com 1.10,2013-06-25 00:57:00,
2013-06-24 21:12:00,73.1,71.0,29.89,SW,230,0.0,1.0,94,0.00,,,0.00,weatherlink.com 1.10,2013-06-25 01:12:00,
2013-06-24 22:42:00,72.4,71.0,29.90,SW,230,0.0,1.0,94,0.00,,,0.00,weatherlink.com 1.10,2013-06-25 02:42:00,
2013-06-24 22:57:00,71.9,71.0,29.90,SW,230,0.0,0.0,95,0.00,,,0.00,weatherlink.com 1.10,2013-06-25 02:57:00,
2013-06-24 23:12:00,71.6,70.0,29.90,SW,230,0.0,0.0,96,0.00,,,0.00,weatherlink.com 1.10,2013-06-25 03:12:00,
2013-06-24 23:42:00,71.4,70.0,29.90,NE,35,0.0,0.0,96,0.00,,,0.00,weatherlink.com 1.10,2013-06-25 03:42:00,